Eastsound, WA

10:02 AM PST on November 20, 2017 (GMT -0800)
Orcas Island

Weather History for KORS - July, 2013

Change the Weather History Date:

Wednesday, July 31, 2013

  Actual Average (KFHR) Record (KFHR)
Temperature  
Mean Temperature 60 °F -  
Max Temperature 68 °F 70 °F 84 °F (2015)
Min Temperature 53 °F 48 °F 42 °F (2008)
Degree Days  
Heating Degree Days 4    
Growing Degree Days 10 (Base 50)    
Moisture  
Dew Point 54 °F    
Average Humidity 83    
Maximum Humidity 100    
Minimum Humidity 64    
Precipitation  
Precipitation 0.00 in - - ()
Sea Level Pressure  
Sea Level Pressure 30.05 in    
Wind  
Wind Speed 8 mph (South)    
Max Wind Speed 15 mph    
Max Gust Speed 24 mph    
Visibility 10 miles    
Events Rain    
Averages and records for this station are not official NWS values.
T = Trace of Precipitation, MM = Missing Value Source: NWS Daily Summary

Daily Weather History Graph

Daily Weather History Graph

Search for Another Location

Airport or City:

Trip Planner

Search our weather history database for the weather conditions in past years. The results will help you decide how hot, cold, wet, or windy it might be!

Date:

Astronomy

Jul. 31, 2013 Rise Set
Actual Time 5:44 AM PDT 8:50 PM PDT
Civil Twilight 5:07 AM PDT 9:27 PM PDT
Nautical Twilight 4:18 AM PDT 10:15 PM PDT
Astronomical Twilight 3:17 AM PDT 11:15 PM PDT
Moon 12:43 AM PDT (7/31) 4:13 PM PDT (7/31)
Length of Visible Light 16h 20m
Length of Day
15h 05m
Waning Crescent, 31% of the Moon is Illuminated
Jul 31
Waning Crescent
Aug 6
New
Aug 14
First Quarter
Aug 20
Full
Aug 28
Last Quarter

Hourly Weather History & Observations

Time (PDT) Temp. Dew Point Humidity Pressure Visibility Wind Dir Wind Speed Gust Speed Precip Events Conditions
12:15 AM 57.2 °F 53.6 °F 88% 30.08 in 10.0 mi South 9.2 mph - N/A   Clear
12:35 AM 57.2 °F 53.6 °F 88% 30.08 in 10.0 mi South 5.8 mph - N/A   Clear
12:55 AM 57.2 °F 53.6 °F 88% 30.09 in 10.0 mi South 3.5 mph - N/A   Clear
1:15 AM 57.2 °F 53.6 °F 88% 30.09 in 10.0 mi South 9.2 mph - N/A   Clear
1:35 AM 57.2 °F 53.6 °F 88% 30.09 in 10.0 mi South 3.5 mph - N/A   Clear
1:55 AM 57.2 °F 53.6 °F 88% 30.08 in 10.0 mi South 5.8 mph - N/A   Clear
2:15 AM 57.2 °F 53.6 °F 88% 30.08 in 10.0 mi South 13.8 mph 19.6 mph N/A   Clear
2:35 AM 57.2 °F 53.6 °F 88% 30.08 in 10.0 mi South 12.7 mph 19.6 mph N/A   Clear
2:55 AM 57.2 °F 53.6 °F 88% 30.08 in 10.0 mi South 9.2 mph - N/A   Clear
3:15 AM 57.2 °F 53.6 °F 88% 30.08 in 10.0 mi South 10.4 mph - N/A   Clear
3:35 AM 55.4 °F 53.6 °F 94% 30.08 in 10.0 mi South 11.5 mph 17.3 mph N/A   Clear
3:55 AM 55.4 °F 53.6 °F 94% 30.08 in 10.0 mi South 8.1 mph 16.1 mph N/A   Clear
4:15 AM 55.4 °F 53.6 °F 94% 30.08 in 10.0 mi South 8.1 mph - N/A   Clear
4:35 AM 55.4 °F 53.6 °F 94% 30.09 in 10.0 mi South 9.2 mph - N/A   Clear
4:55 AM 55.4 °F 53.6 °F 94% 30.08 in 10.0 mi South 5.8 mph - N/A   Clear
5:15 AM 55.4 °F 53.6 °F 94% 30.08 in 10.0 mi South 8.1 mph - N/A   Clear
5:35 AM 55.4 °F 53.6 °F 94% 30.09 in 10.0 mi South 8.1 mph - N/A   Clear
5:55 AM 53.6 °F 53.6 °F 100% 30.09 in 10.0 mi South 9.2 mph - N/A   Clear
6:15 AM 53.6 °F 53.6 °F 100% 30.09 in 10.0 mi South 8.1 mph - N/A   Clear
6:35 AM 53.6 °F 53.6 °F 100% 30.09 in 10.0 mi South 8.1 mph - N/A   Clear
6:55 AM 53.6 °F 53.6 °F 100% 30.09 in 10.0 mi South 6.9 mph - N/A   Partly Cloudy
7:15 AM 55.4 °F 53.6 °F 94% 30.09 in 10.0 mi SSW 6.9 mph - N/A   Partly Cloudy
7:35 AM 55.4 °F 53.6 °F 94% 30.10 in 10.0 mi SSW 11.5 mph - N/A   Partly Cloudy
7:55 AM 53.6 °F 53.6 °F 100% 30.10 in 10.0 mi South 9.2 mph 17.3 mph N/A   Mostly Cloudy
8:15 AM 55.4 °F 53.6 °F 94% 30.10 in 10.0 mi South 9.2 mph 16.1 mph N/A   Mostly Cloudy
8:35 AM 55.4 °F 53.6 °F 94% 30.10 in 10.0 mi SSW 9.2 mph - N/A   Partly Cloudy
8:55 AM 55.4 °F 53.6 °F 94% 30.10 in 10.0 mi SSW 10.4 mph - N/A   Partly Cloudy
9:15 AM 55.4 °F 53.6 °F 94% 30.10 in 10.0 mi SSW 11.5 mph 16.1 mph N/A   Clear
9:35 AM 55.4 °F 53.6 °F 94% 30.10 in 10.0 mi South 10.4 mph - N/A   Clear
9:55 AM 57.2 °F 53.6 °F 88% 30.10 in 10.0 mi South 9.2 mph - N/A   Clear
10:15 AM 57.2 °F 53.6 °F 88% 30.09 in 10.0 mi SSW 9.2 mph - N/A   Clear
10:35 AM 57.2 °F 53.6 °F 88% 30.09 in 10.0 mi SSW 10.4 mph - N/A   Clear
10:55 AM 59.0 °F 53.6 °F 82% 30.09 in 10.0 mi South 4.6 mph - N/A   Clear
11:15 AM 57.2 °F 53.6 °F 88% 30.08 in 10.0 mi South 8.1 mph - N/A   Clear
11:35 AM 59.0 °F 53.6 °F 82% 30.08 in 10.0 mi South 9.2 mph - N/A   Clear
11:55 AM 62.6 °F 55.4 °F 77% 30.07 in 10.0 mi South 6.9 mph - N/A   Clear
12:15 PM 62.6 °F 55.4 °F 77% 30.07 in 10.0 mi South 6.9 mph - N/A   Clear
12:35 PM 62.6 °F 55.4 °F 77% 30.06 in 10.0 mi South 8.1 mph - N/A   Clear
12:55 PM 62.6 °F 55.4 °F 77% 30.05 in 10.0 mi South 6.9 mph - N/A   Clear
1:15 PM 62.6 °F 53.6 °F 72% 30.05 in 10.0 mi SSW 4.6 mph - N/A   Clear
1:35 PM 62.6 °F 55.4 °F 77% 30.05 in 10.0 mi South 5.8 mph - N/A   Clear
1:55 PM 64.4 °F 55.4 °F 73% 30.04 in 10.0 mi South 6.9 mph - N/A   Clear
2:15 PM 66.2 °F 55.4 °F 68% 30.03 in 10.0 mi SSW 6.9 mph - N/A   Clear
2:35 PM 66.2 °F 55.4 °F 68% 30.03 in 10.0 mi South 5.8 mph - N/A   Clear
2:55 PM 66.2 °F 55.4 °F 68% 30.03 in 10.0 mi South 3.5 mph - N/A   Clear
3:15 PM 68.0 °F 55.4 °F 64% 30.02 in 10.0 mi South 9.2 mph - N/A   Clear
3:35 PM 66.2 °F 55.4 °F 68% 30.02 in 10.0 mi South 6.9 mph - N/A   Clear
3:55 PM 64.4 °F 55.4 °F 73% 30.02 in 10.0 mi South 10.4 mph - N/A   Clear
4:15 PM 66.2 °F 55.4 °F 68% 30.01 in 10.0 mi SSW 10.4 mph - N/A   Clear
4:35 PM 66.2 °F 55.4 °F 68% 30.01 in 10.0 mi SSW 10.4 mph 17.3 mph N/A   Clear
4:55 PM 66.2 °F 55.4 °F 68% 30.00 in 10.0 mi SSW 9.2 mph - N/A   Clear
5:15 PM 66.2 °F 55.4 °F 68% 30.00 in 10.0 mi SSW 9.2 mph - N/A   Clear
5:35 PM 66.2 °F 55.4 °F 68% 29.99 in 10.0 mi South 10.4 mph - N/A   Clear
5:55 PM 66.2 °F 55.4 °F 68% 29.99 in 10.0 mi South 8.1 mph - N/A   Clear
6:15 PM 64.4 °F 55.4 °F 73% 29.99 in 10.0 mi South 10.4 mph - N/A   Clear
6:35 PM 62.6 °F 55.4 °F 77% 30.00 in 10.0 mi South 13.8 mph 20.7 mph N/A   Clear
6:55 PM 62.6 °F 55.4 °F 77% 30.01 in 10.0 mi South 15.0 mph 24.2 mph N/A   Clear
7:15 PM 62.6 °F 55.4 °F 77% 30.01 in 10.0 mi South 12.7 mph 18.4 mph N/A   Clear
7:35 PM 62.6 °F 55.4 °F 77% 30.01 in 10.0 mi South 9.2 mph 16.1 mph N/A   Clear
7:55 PM 62.6 °F 55.4 °F 77% 29.99 in 10.0 mi South 13.8 mph - N/A   Clear
8:15 PM 62.6 °F 55.4 °F 77% 29.98 in 10.0 mi South 13.8 mph - N/A   Clear
8:35 PM 64.4 °F 55.4 °F 73% 29.97 in 10.0 mi SSW 10.4 mph - N/A   Clear
8:55 PM 64.4 °F 55.4 °F 73% 29.98 in 10.0 mi SE 3.5 mph - N/A   Clear
9:15 PM 62.6 °F 55.4 °F 77% 30.00 in 10.0 mi NE 5.8 mph - N/A Rain Light Rain
9:35 PM 60.8 °F 55.4 °F 82% 30.01 in 10.0 mi South 6.9 mph - N/A   Partly Cloudy
9:55 PM 59.0 °F 55.4 °F 88% 30.01 in 10.0 mi SSE 4.6 mph - N/A   Mostly Cloudy
10:15 PM 59.0 °F 55.4 °F 88% 30.01 in 10.0 mi South 8.1 mph - N/A   Scattered Clouds
10:35 PM 60.8 °F 55.4 °F 82% 30.00 in 10.0 mi South 8.1 mph 18.4 mph N/A   Partly Cloudy
10:55 PM 60.8 °F 55.4 °F 82% 29.99 in 10.0 mi South 9.2 mph - N/A   Clear
11:15 PM 59.0 °F 55.4 °F 88% 29.99 in 10.0 mi South 6.9 mph - N/A   Clear
11:35 PM 57.2 °F 53.6 °F 88% 29.98 in 10.0 mi South 8.1 mph 19.6 mph N/A   Clear
11:55 PM 57.2 °F 53.6 °F 88% 29.98 in 10.0 mi South 10.4 mph - N/A   Clear